OBJECT D, 60457

Orbit data source: Space-Track

You're viewing an Uncataloged Satellite

Recently launched and/or uncataloged satellites may have evolving metadata. Metadata may include but not limited to: Owner, Maufacturer, Bus, Motor, and Mission.

OBJECT D, 60457 is a satellite owned by ISRO (IN) in LEO that was launched on Fri, 16 Aug 2024 UTC launched from the Sirharikota (SRI). Unknown objects in Earth's orbit typically refer to objects detected orbiting the Earth but have not yet been identified or cataloged. These objects could be anything from previously untracked satellites, spent rocket stages, debris from satellite collisions, or even natural meteoroids temporarily captured by Earth's gravity.

Loading next visibility...
OBJECT D details
Identifier
60457, 2024-147D
Orbit
LEO
Last TLE update11 hours ago
Origin
Flag of INISRO (IN / IND)
ManufacturerISRO
MissionSpacecraft
Bus & MotorVTM, Unknown motor
Mass~200 kg wet, ~200 kg dry
Launch date (UTC)
2024-08-16 (4 months ago)
Launch vehicleUnknown
Launch site
Sirharikota (SRI)
Object typeUnknown
Shape & HBRUnknown
Radar Cross SectionLarge (>1 m²)

Expand to show TLE details & history

TLE from 11 hours ago
0 OBJECT D
1 60457U 24147D   24360.96062791  .00038853  00000-0  75250-3 0  9994
2 60457  37.3630 192.5617 0029833  21.7136 338.4886 15.46298490 20349
Epoch: 2024-12-25T23:03Z
Definitive object data (Epoch: 2024-12-25T23:03:18.251Z)
Latitude-0.00004°
Longitude111.78873°
Altitude407.837 km
Speed7.679 km/s
True Right ascension12h 50m 14s
True Declination0° 00' 00"
Sunlit
Object was in daylight at TLE epoch
Visualization TLE readout
Latitude34.27777°
Longitude171.44007°
Altitude413.032 km
Speed7.677 km/s
Apparent Right ascension18h 59m 36s
Apparent Declination-1° 46' 44"
Sunlit
Object is in daylight
Visualization observer readout
Local Sidereal Time09:32:40
Azimuth52.223° ENE
Elevation-38.45°
Doppler factor1
Orbital elements
Apogee altitude450.779 km
Perigee altitude410.155 km
Semi-major axis6,808.604 km
Eccentricity0.0029833
Inclination37.363°
RAAN192.5617°
Arg. of periapsis21.7136°
True anomaly338.36281°
Mean anomaly338.4886°
Eccentric anomaly338.42575°
Mean motion3.86328 °/min
BSTAR0.0007525
Orbital period93.19 mins
Loading maneuver chart data...
Loading historical data...
Loading historical data...
Loading historical data...
Loading historical data...
Loading historical data...
Loading historical data...
Loading historical data...
Other satellites on launch #147 in the year 2024 (2024-08-16 UTC)

OBJECT D Visibility forecast

Observer location: undefined°, undefined

Span
Click to sort rows by Start time (UTC) header in descending order
Start Az.
Max El. time (UTC)
Max El. Az.
Max El.
End time (UTC)
End Az.
4 mins2024-12-26 17:57:31.575Z220.871° SW2024-12-26 17:58:31.575Z184.331° SSW33.358°2024-12-26 18:01:31.575Z99.366° ESE
5 mins2024-12-26 19:34:31.575Z255.797° W2024-12-26 19:36:31.575Z196.794° SSW37.883°2024-12-26 19:39:31.575Z109.748° ESE
|